| time (UTC) | temp F | wind direction | speed MPH | gust MPH | rain 1hr in | rain 24hr in | rain mn in | humidity % | barometer mb |
| 20260504001440 | 42 | 0 | 0.0 | 0.0 | 0.00 | 0.00 | 0.00 | 64 | 1005.3 |
| 20260504000540 | 43 | 0 | 0.0 | 0.0 | 0.00 | 0.00 | 0.00 | 62 | 1005.3 |
| 20260503235640 | 44 | 0 | 0.0 | 0.0 | 0.00 | 0.00 | 0.00 | 59 | 1005.2 |
| 20260503234740 | 44 | 0 | 0.0 | 0.0 | 0.00 | 0.00 | 0.00 | 54 | 1005.1 |
| 20260503233840 | 45 | 320 | 0.0 | 3.0 | 0.00 | 0.00 | 0.00 | 50 | 1005.0 |
| 20260503232940 | 45 | 315 | 0.0 | 4.0 | 0.00 | 0.00 | 0.00 | 48 | 1005.0 |
| 20260503232040 | 45 | 314 | 1.0 | 9.0 | 0.00 | 0.00 | 0.00 | 48 | 1004.9 |
| 20260503231140 | 46 | 312 | 1.0 | 8.0 | 0.00 | 0.00 | 0.00 | 49 | 1004.8 |
| 20260503230240 | 46 | 293 | 0.0 | 2.0 | 0.00 | 0.00 | 0.00 | 50 | 1004.8 |
| 20260503225340 | 46 | 269 | 1.0 | 6.0 | 0.00 | 0.00 | 0.00 | 49 | 1004.7 |
| 20260503224440 | 46 | 296 | 2.0 | 10.0 | 0.00 | 0.00 | 0.00 | 48 | 1004.7 |
| 20260503223540 | 46 | 268 | 3.0 | 7.0 | 0.00 | 0.00 | 0.00 | 50 | 1004.8 |
| 20260503221740 | 46 | 262 | 1.0 | 6.0 | 0.00 | 0.00 | 0.00 | 52 | 1004.8 |
| 20260503220840 | 46 | 293 | 2.0 | 12.0 | 0.00 | 0.00 | 0.00 | 50 | 1004.8 |
| 20260503215940 | 46 | 299 | 1.0 | 8.0 | 0.00 | 0.00 | 0.00 | 51 | 1004.7 |
| 20260503215040 | 46 | 320 | 1.0 | 12.0 | 0.00 | 0.00 | 0.00 | 51 | 1004.6 |
| 20260503214140 | 45 | 294 | 2.0 | 10.0 | 0.00 | 0.00 | 0.00 | 53 | 1004.6 |
| 20260503213240 | 45 | 289 | 1.0 | 6.0 | 0.00 | 0.00 | 0.00 | 53 | 1004.5 |
| 20260503212340 | 45 | 306 | 1.0 | 11.0 | 0.00 | 0.00 | 0.00 | 51 | 1004.5 |
| 20260503211440 | 45 | 290 | 3.0 | 8.0 | 0.00 | 0.00 | 0.00 | 51 | 1004.5 |
| 20260503205640 | 46 | 298 | 4.0 | 13.0 | 0.00 | 0.00 | 0.00 | 51 | 1004.4 |
| 20260503204739 | 46 | 277 | 3.0 | 13.0 | 0.00 | 0.00 | 0.00 | 50 | 1004.5 |
| 20260503203840 | 45 | 294 | 3.0 | 13.0 | 0.00 | 0.00 | 0.00 | 51 | 1004.3 |
| 20260503202939 | 46 | 298 | 2.0 | 12.0 | 0.00 | 0.00 | 0.00 | 47 | 1004.5 |
| 20260503202039 | 46 | 298 | 3.0 | 14.0 | 0.00 | 0.00 | 0.00 | 50 | 1004.5 |
| 20260503201140 | 46 | 316 | 2.0 | 11.0 | 0.00 | 0.00 | 0.00 | 50 | 1004.2 |
| 20260503195339 | 46 | 305 | 2.0 | 12.0 | 0.00 | 0.00 | 0.00 | 48 | 1004.4 |
| 20260503194439 | 46 | 314 | 2.0 | 13.0 | 0.00 | 0.00 | 0.00 | 53 | 1004.4 |
| 20260503193539 | 46 | 315 | 2.0 | 13.0 | 0.00 | 0.01 | 0.00 | 50 | 1004.4 |
| 20260503192639 | 46 | 290 | 1.0 | 9.0 | 0.00 | 0.01 | 0.00 | 47 | 1004.4 |
| 20260503191739 | 46 | 291 | 2.0 | 9.0 | 0.00 | 0.01 | 0.00 | 53 | 1004.5 |
| 20260503190839 | 45 | 324 | 3.0 | 16.0 | 0.00 | 0.02 | 0.00 | 47 | 1004.7 |
| 20260503185939 | 45 | 311 | 2.0 | 13.0 | 0.00 | 0.02 | 0.00 | 49 | 1004.5 |
| 20260503185039 | 45 | 306 | 2.0 | 11.0 | 0.00 | 0.02 | 0.00 | 50 | 1004.5 |
| 20260503184139 | 46 | 319 | 2.0 | 16.0 | 0.00 | 0.02 | 0.00 | 49 | 1004.5 |
| 20260503182340 | 47 | 320 | 2.0 | 10.0 | 0.00 | 0.02 | 0.00 | 43 | 1004.1 |
| 20260503181439 | 47 | 321 | 3.0 | 16.0 | 0.00 | 0.02 | 0.00 | 44 | 1004.2 |
| 20260503180539 | 47 | 336 | 1.0 | 10.0 | 0.00 | 0.02 | 0.00 | 42 | 1004.0 |
| 20260503175639 | 47 | 332 | 2.0 | 15.0 | 0.00 | 0.02 | 0.00 | 47 | 1003.9 |
| 20260503174739 | 47 | 313 | 2.0 | 14.0 | 0.00 | 0.02 | 0.00 | 48 | 1004.0 |
| 20260503173839 | 47 | 326 | 2.0 | 12.0 | 0.00 | 0.02 | 0.00 | 45 | 1004.0 |
| 20260503172939 | 47 | 313 | 2.0 | 13.0 | 0.00 | 0.02 | 0.00 | 47 | 1004.2 |
| 20260503172039 | 47 | 321 | 2.0 | 16.0 | 0.00 | 0.02 | 0.00 | 47 | 1003.9 |
| 20260503171139 | 48 | 291 | 1.0 | 8.0 | 0.00 | 0.02 | 0.00 | 50 | 1003.9 |
| 20260503170239 | 47 | 290 | 2.0 | 11.0 | 0.00 | 0.02 | 0.00 | 52 | 1003.9 |
| 20260503150539 | 43 | 327 | 0.0 | 5.0 | 0.00 | 0.02 | 0.00 | 62 | 1004.6 |
| 20260503140239 | 41 | 335 | 0.0 | 4.0 | 0.00 | 0.02 | 0.00 | 76 | 1004.9 |
| 20260503130839 | 38 | 267 | 0.0 | 2.0 | 0.00 | 0.02 | 0.00 | 86 | 1005.2 |
| 20260503110238 | 36 | 319 | 0.0 | 9.0 | 0.00 | 0.02 | 0.00 | 89 | 1005.0 |
| 20260503081138 | 35 | 0 | 0.0 | 0.0 | 0.00 | 0.07 | 0.00 | 93 | 1005.6 |
| 20260503080238 | 35 | 0 | 0.0 | 0.0 | 0.00 | 0.07 | 0.00 | 93 | 1005.8 |
| 20260503072638 | 35 | 0 | 0.0 | 0.0 | 0.00 | 0.08 | 0.00 | 93 | 1005.8 |
| 20260503070838 | 35 | 0 | 0.0 | 0.0 | 0.00 | 0.08 | 0.00 | 93 | 1006.1 |
| 20260503054738 | 34 | 0 | 0.0 | 0.0 | 0.00 | 0.12 | 0.00 | 93 | 1006.7 |
| 20260503053838 | 35 | 0 | 0.0 | 0.0 | 0.00 | 0.12 | 0.00 | 93 | 1006.8 |
| 20260503052938 | 35 | 0 | 0.0 | 0.0 | 0.00 | 0.12 | 0.00 | 92 | 1006.9 |
| 20260503052038 | 35 | 0 | 0.0 | 0.0 | 0.00 | 0.12 | 0.00 | 92 | 1006.9 |
| 20260503051138 | 35 | 0 | 0.0 | 0.0 | 0.00 | 0.13 | 0.00 | 92 | 1007.1 |
| 20260503050238 | 35 | 0 | 0.0 | 0.0 | 0.00 | 0.13 | 0.00 | 92 | 1007.2 |
| 20260503045338 | 35 | 0 | 0.0 | 0.0 | 0.00 | 0.13 | 0.00 | 92 | 1007.3 |
| 20260503044438 | 36 | 0 | 0.0 | 0.0 | 0.00 | 0.13 | 0.00 | 92 | 1007.3 |
| 20260503043538 | 36 | 0 | 0.0 | 0.0 | 0.00 | 0.13 | 0.00 | 92 | 1007.5 |
| 20260503042638 | 36 | 0 | 0.0 | 0.0 | 0.00 | 0.13 | 0.00 | 91 | 1007.7 |
| 20260503041738 | 36 | 0 | 0.0 | 0.0 | 0.00 | 0.13 | 0.00 | 90 | 1007.8 |
| 20260503040838 | 36 | 0 | 0.0 | 0.0 | 0.00 | 0.13 | 0.00 | 90 | 1007.8 |
| 20260503035938 | 36 | 0 | 0.0 | 0.0 | 0.00 | 0.13 | 0.13 | 89 | 1007.8 |
| 20260503035038 | 37 | 0 | 0.0 | 0.0 | 0.00 | 0.13 | 0.13 | 89 | 1007.9 |
| 20260503034138 | 38 | 0 | 0.0 | 0.0 | 0.00 | 0.13 | 0.13 | 88 | 1007.9 |
| 20260503033238 | 38 | 0 | 0.0 | 0.0 | 0.00 | 0.13 | 0.13 | 87 | 1008.1 |
| 20260503032337 | 38 | 0 | 0.0 | 0.0 | 0.00 | 0.13 | 0.13 | 87 | 1008.0 |
| 20260503031438 | 39 | 0 | 0.0 | 0.0 | 0.00 | 0.13 | 0.13 | 86 | 1008.0 |
| 20260503030537 | 39 | 0 | 0.0 | 0.0 | 0.00 | 0.13 | 0.13 | 85 | 1008.0 |
| 20260503025637 | 40 | 0 | 0.0 | 0.0 | 0.00 | 0.13 | 0.13 | 84 | 1008.1 |
| 20260503023838 | 40 | 0 | 0.0 | 0.0 | 0.00 | 0.13 | 0.13 | 84 | 1008.2 |
| 20260503022037 | 40 | 334 | 0.0 | 2.0 | 0.00 | 0.13 | 0.13 | 82 | 1008.4 |
| 20260503020237 | 40 | 0 | 0.0 | 0.0 | 0.00 | 0.13 | 0.13 | 83 | 1008.4 |
| 20260503015337 | 40 | 0 | 0.0 | 0.0 | 0.00 | 0.13 | 0.13 | 83 | 1008.5 |
| 20260503014437 | 40 | 276 | 0.0 | 3.0 | 0.00 | 0.13 | 0.13 | 83 | 1008.5 |
| 20260503013538 | 41 | 0 | 0.0 | 0.0 | 0.00 | 0.13 | 0.13 | 83 | 1008.4 |
| 20260503012637 | 41 | 0 | 0.0 | 0.0 | 0.00 | 0.13 | 0.13 | 83 | 1008.5 |
| 20260503011737 | 41 | 288 | 0.0 | 1.0 | 0.00 | 0.13 | 0.13 | 84 | 1008.4 |
| 20260503010837 | 42 | 0 | 0.0 | 0.0 | 0.00 | 0.13 | 0.13 | 84 | 1008.4 |
| 20260503005937 | 42 | 0 | 0.0 | 0.0 | 0.00 | 0.13 | 0.13 | 84 | 1008.3 |
| 20260503004137 | 43 | 275 | 0.0 | 2.0 | 0.00 | 0.13 | 0.13 | 84 | 1008.2 |
| 20260503003237 | 44 | 275 | 0.0 | 4.0 | 0.00 | 0.13 | 0.13 | 85 | 1008.0 |